Weather in Pisochyn

Ukraine / Kharkiv Region     49°57′12″N   36°06′29″E
temp.,
°C
wind,
m/s
gust,
m/s
humid.,
%
clouds,
%
prec.,
mm/h
press.,
hPa
HPBL,
m
26 july, mon
mon2600:00+19ene34520 0.0 102172
03:00+18e356412 0.0 102284
06:00+18ene36612 0.0 1022128
09:00+25e46380 0.0 1022712
12:00+29e44300 0.0 10212368
15:00+30ene442666 0.0 10202913
18:00+27ene4732100 0.0 1020419
21:00+25ene5104032 0.0 1021472
27 july, tue
tue2700:00+20ene36507 0.0 1022110
03:00+19e365414 0.0 1022110
06:00+19e355428 0.0 1022104
09:00+26e45345 0.0 1021539
12:00+30e32264 0.0 10202370
15:00+32ne322276 0.0 10193490
18:00+29ne4627100 0.0 1018449
21:00+26e483595 0.0 1019322
28 july, wed
wed2800:00+24se510428 0.0 1019384
03:00+20s23565 0.0 101961
06:00+20s236019 0.0 101875
09:00+26s464499 0.0 1017472
12:00+31ssw5631100 0.0 10161980
15:00+24wsw4764100 0.1 1016403
18:00+24sse4765100 0.1 1015311
21:00+23s3106993 0.1 1014271
29 july, thu
thu2900:00+20s1185100 0.9 101323
03:00+18w238776 0.9 101356
06:00+19wnw22855 0.0 101345
09:00+25wsw225943 0.0 1013459
12:00+30wsw22395 0.0 10121897
15:00+33wnw433021 0.0 10112797
18:00+31nw543252 0.0 10111943
21:00+25nne355033 0.0 1012131
30 july, fri
fri3000:00+23ene23594 0.0 101256
03:00+22ese246059 0.0 101269
06:00+22se24645 0.0 1012100
09:00+29sse334463 0.0 1011627
12:00+33ssw453375 0.0 10112653
15:00+33sw4533100 0.1 10102180
18:00+32wsw55369 0.0 10091275
21:00+25ssw376439 0.3 1010180